Meteo Giornale » Osservazioni meteo Cile » Concepcion
ore: 01:00 - Osservazioni Meteo Concepcion
Lat. 36° 46' S Lon. 73° 3' W Alt. 12 metri s.l.m.
10 °C
Coperto
Temp. 24 Ore
10 °C
16 °C
Sud/Sud-Est
7.4 Km/h
Dew point 10 °C
Umidità 100 %
Visibilità 9 Km
Il sole sorge alle ore 07:12
Il sole tramonta alle ore 18:32
| Data e Ora | Cielo e Fenomeni | T °C | DP °C | Um. % | Pres. hPa | Vis. km | Vento km/h | |
|---|---|---|---|---|---|---|---|---|
| Oggi h: 01:00 | Coperto | 10 | 10 | 100 | 1022 | 9 | S/SE 7.4 | |
| Oggi h: 00:00 | Molto Nuvoloso | 11 | 10 | 93 | 1023 | 7 | SO 7.4 | |
| Ieri h: 23:00 | Foschia | 11 | 10 | 93 | 1023 | 4 | N 3.7 | |
| Ieri h: 22:00 | Foschia | 12 | 11 | 93 | 1023 | 5 | E/SE 7.4 | |
| Ieri h: 21:00 | Sereno | 12 | 11 | 93 | 1023 | 8 | N 5.5 | |
| Ieri h: 19:00 | Nuvoloso | 13 | 12 | 93 | 1023 | 10 | N 5.5 | |
| Ieri h: 18:00 | Nuvoloso | 15 | 12 | 82 | 1023 | 10 | N 9.3 | |
| Ieri h: 17:00 | Nuvoloso | 15 | 12 | 82 | 1023 | 10 | N 9.3 | |
| Ieri h: 16:00 | Nuvoloso | 15 | 13 | 87 | 1023 | 10 | N 13 | |
| Ieri h: 15:00 | Molto Nuvoloso | 16 | 12 | 77 | 1023 | 10 | N/NO 13 | |
| Ieri h: 14:00 | Molto Nuvoloso | 16 | 13 | 82 | 1024 | 10 | N 14.8 | |
| Ieri h: 13:00 | Molto Nuvoloso | 15 | 13 | 87 | 1024 | 10 | N 14.8 | |
| Ieri h: 12:00 | Molto Nuvoloso | 15 | 13 | 87 | 1024 | 10 | N 14.8 | |
| Ieri h: 11:00 | Molto Nuvoloso | 14 | 13 | 93 | 1024 | 10 | N 13 | |
| Ieri h: 10:33 | Molto Nuvoloso | 14 | 12 | 87 | 1024 | 10 | N 11.1 | |
| Ieri h: 10:00 | Pioggia | 13 | 12 | 93 | 1024 | 8 | N 7.4 | |
| Ieri h: 09:41 | Pioggia | 13 | 12 | 93 | 1024 | 5 | N 7.4 | |
| Ieri h: 09:00 | Pioggia | 13 | 12 | 93 | 1023 | 10 | N 7.4 | |
| Ieri h: 08:00 | Molto Nuvoloso | 13 | 12 | 93 | 1022 | 10 | N 9.3 | |
| Ieri h: 07:00 | Molto Nuvoloso | 13 | 11 | 87 | 1021 | 10 | N 7.4 | |
| Ieri h: 06:15 | Molto Nuvoloso | 12 | 11 | 93 | 1021 | 10 | N 7.4 | |
| Ieri h: 06:06 | Molto Nuvoloso | 12 | 11 | 93 | 1021 | 10 | N 7.4 | |
| Ieri h: 06:00 | Molto Nuvoloso | 12 | 11 | 93 | 1021 | 10 | N 9.3 | |
| Ieri h: 05:53 | Molto Nuvoloso | 12 | 11 | 93 | 1021 | 10 | N 9.3 | |
| Ieri h: 05:49 | Coperto | 12 | 11 | 93 | 1021 | 10 | N/NE 9.3 | |
| Ieri h: 05:38 | Coperto | 12 | 11 | 93 | 1020 | 10 | N/NE 9.3 | |
| Ieri h: 05:37 | Coperto | 12 | 11 | 93 | 1020 | 10 | N/NE 9.3 | |
| Ieri h: 05:25 | Coperto | 12 | 11 | 93 | 1020 | 10 | N 5.5 | |
| Ieri h: 05:00 | Pioggia | 12 | 12 | 100 | 1020 | 10 | N/NO 7.4 | |
| Ieri h: 04:49 | Pioggia | 12 | 12 | 100 | 1020 | 10 | N/NO 7.4 | |
| Ieri h: 04:37 | Pioggia | 13 | 12 | 93 | 1020 | 10 | N 9.3 | |
| Ieri h: 04:21 | Pioggia | 13 | 12 | 93 | 1020 | 10 | N 11.1 | |
| Ieri h: 04:11 | Pioggia | 13 | 12 | 93 | 1020 | 10 | N 9.3 | |
| Ieri h: 04:00 | Pioggia | 13 | 11 | 87 | 1019 | 10 | N 14.8 | |
| Ieri h: 03:47 | Pioggia | 13 | 11 | 87 | 1019 | 10 | N 14.8 | |
| Ieri h: 03:34 | Pioggia | 13 | 12 | 93 | 1019 | 10 | N 14.8 | |
| Ieri h: 03:00 | Coperto | 13 | 12 | 93 | 1020 | 10 | N 9.3 | |
| Ieri h: 02:11 | Pioggia | 12 | 11 | 93 | 1019 | 10 | N/NE 14.8 | |
| Ieri h: 02:00 | Pioggia | 12 | 12 | 100 | 1019 | 7 | NE 14.8 | |
| Ieri h: 01:51 | Pioggia | 12 | 12 | 100 | 1019 | 7 | NE 14.8 | |
| Ieri h: 01:44 | Pioggia | 12 | 11 | 93 | 1019 | 8 | N/NE 14.8 | |



